Location: Sevilla
(37.3933°N, 5.9839°W)
Time: 14:35:09
(UTC+02:00)

A-11 Canister half - All Passes

Search period start: 25 June 2024 00:00
Search period end: 05 July 2024 00:00
Orbit: 1515 x 1685 km, 47.2° (Epoch: 24 June)

Date Brightness Start Highest point End Pass type
(mag) Time Alt. Az. Time Alt. Az. Time Alt. Az.
25 Jun - 00:27:32 10° WNW 00:37:28 68° NNE 00:46:58 10° ESE visible
25 Jun - 02:33:00 10° WNW 02:42:14 50° SW 02:51:09 10° SSE visible
25 Jun - 15:50:45 10° SE 15:53:14 11° ESE 15:55:42 10° ESE daylight
25 Jun - 17:46:55 10° SSW 17:56:34 51° SE 18:06:10 10° ENE daylight
25 Jun - 19:51:22 10° WSW 20:01:31 69° NNW 20:11:30 10° ENE daylight
25 Jun - 21:58:15 10° WNW 22:07:57 48° N 22:17:21 10° ENE visible
26 Jun - 00:04:29 10° WNW 00:14:25 66° NNE 00:23:56 10° ESE visible
26 Jun - 02:09:55 10° WNW 02:19:17 53° SW 02:28:20 10° SSE visible
26 Jun - 04:20:00 10° WSW 04:22:29 11° WSW 04:24:58 10° SW visible
26 Jun - 17:24:04 10° SSW 17:33:36 48° SE 17:43:06 10° ENE daylight
26 Jun - 19:28:16 10° WSW 19:38:27 71° NNW 19:48:29 10° ENE daylight
26 Jun - 21:35:08 10° WNW 21:44:50 48° N 21:54:17 10° ENE daylight
26 Jun - 23:41:26 10° WNW 23:51:21 64° NNE 00:00:54 10° ESE visible
27 Jun - 01:46:51 10° WNW 01:56:21 56° SW 02:05:30 10° SSE visible
27 Jun - 03:55:54 10° W 03:59:37 13° WSW 04:03:18 10° SW visible
27 Jun - 17:01:15 10° SSW 17:10:38 45° SE 17:20:01 10° ENE daylight
27 Jun - 19:05:11 10° WSW 19:15:23 74° NNW 19:25:28 10° ENE daylight
27 Jun - 21:11:59 10° WNW 21:21:43 48° N 21:31:13 10° ENE daylight
27 Jun - 23:18:22 10° WNW 23:28:17 62° NNE 23:37:51 10° E visible
28 Jun - 01:23:47 10° WNW 01:33:24 60° SW 01:42:39 10° SE visible
28 Jun - 03:32:10 10° W 03:36:45 14° WSW 03:41:17 10° SSW visible
28 Jun - 16:38:25 10° SSW 16:47:41 42° SE 16:56:56 10° ENE daylight
28 Jun - 18:42:07 10° WSW 18:52:19 77° NNW 19:02:27 10° ENE daylight
28 Jun - 20:48:50 10° WNW 20:58:36 49° N 21:08:08 10° ENE daylight
28 Jun - 22:55:17 10° WNW 23:05:13 60° NNE 23:14:47 10° E visible
29 Jun - 01:00:44 10° WNW 01:10:27 64° SW 01:19:47 10° SE visible
29 Jun - 03:08:36 10° W 03:13:53 16° WSW 03:19:05 10° SSW visible
29 Jun - 16:15:39 10° SSW 16:24:43 39° SE 16:33:49 10° ENE daylight
29 Jun - 18:19:03 10° WSW 18:29:17 80° NNW 18:39:26 10° ENE daylight
29 Jun - 20:25:42 10° W 20:35:29 49° N 20:45:04 10° ENE daylight
29 Jun - 22:32:13 10° WNW 22:42:09 58° NNE 22:51:43 10° E visible
30 Jun - 00:37:40 10° WNW 00:47:29 67° SW 00:56:54 10° SE visible
30 Jun - 02:45:08 10° W 02:51:00 18° WSW 02:56:47 10° SSW visible
30 Jun - 15:52:53 10° SSW 16:01:46 37° SE 16:10:42 10° ENE daylight
30 Jun - 17:56:01 10° WSW 18:06:14 83° NNW 18:16:24 10° ENE daylight
30 Jun - 20:02:33 10° W 20:12:22 50° N 20:22:00 10° ENE daylight
30 Jun - 22:09:08 10° WNW 22:19:04 57° NNE 22:28:38 10° E visible
01 Jul - 00:14:37 10° WNW 00:24:30 71° SW 00:33:59 10° SE visible
01 Jul - 02:21:45 10° W 02:28:07 20° SW 02:34:23 10° SSW visible
01 Jul - 15:30:09 10° S 15:38:50 34° SE 15:47:33 10° ENE daylight
01 Jul - 17:32:58 10° WSW 17:43:12 86° NNW 17:53:23 10° ENE daylight
01 Jul - 19:39:25 10° W 19:49:15 51° N 19:58:56 10° ENE daylight
01 Jul - 21:46:04 10° WNW 21:55:58 55° NNE 22:05:34 10° E daylight
01 Jul - 23:51:34 10° WNW 00:01:31 75° SW 00:11:05 10° SE visible
02 Jul - 01:58:25 10° W 02:05:14 22° SW 02:11:55 10° S visible
02 Jul - 15:07:26 10° S 15:15:53 32° SE 15:24:24 10° ENE daylight
02 Jul - 17:09:57 10° SW 17:20:09 90° NW 17:30:22 10° ENE daylight
02 Jul - 19:16:17 10° W 19:26:08 51° N 19:35:52 10° ENE daylight
02 Jul - 21:22:58 10° WNW 21:32:53 54° NNE 21:42:29 10° E daylight
02 Jul - 23:28:30 10° WNW 23:38:31 79° SW 23:48:09 10° SE visible
03 Jul - 01:35:07 10° WNW 01:42:21 24° SW 01:49:24 10° S visible
03 Jul - 14:44:46 10° S 14:52:57 29° SE 15:01:13 10° ENE daylight
03 Jul - 16:46:57 10° SW 16:57:07 87° SE 17:07:20 10° ENE daylight
03 Jul - 18:53:08 10° W 19:03:02 52° NNW 19:12:48 10° ENE daylight
03 Jul - 20:59:54 10° WNW 21:09:47 53° NNE 21:19:23 10° E daylight
03 Jul - 23:05:27 10° WNW 23:15:32 83° SW 23:25:13 10° SE visible
04 Jul - 01:11:52 10° WNW 01:19:27 26° SW 01:26:50 10° S visible
04 Jul - 14:22:08 10° S 14:30:01 27° SE 14:38:00 10° ENE daylight
04 Jul - 16:23:57 10° SW 16:34:06 83° SE 16:44:18 10° ENE daylight
04 Jul - 18:30:00 10° W 18:39:55 53° NNW 18:49:45 10° ENE daylight
04 Jul - 20:36:48 10° WNW 20:46:40 52° NNE 20:56:18 10° E daylight
04 Jul - 22:42:24 10° WNW 22:52:32 86° SSW 23:02:15 10° SE visible
